Home   Weather   Alajuela   Past weeks

Flag for Costa Rica Past Weather in Alajuela, Costa Rica — Yesterday and Last 2 Weeks

Now
68 °F

Sunny.


Feels Like: 68 °F
Forecast: 62 / 82 °F
Wind: 5 mph from East

Location: Juan Santamaria

Current Time: Feb 23, 2017 at 8:08:13 am

Latest Report: Feb 23, 2017 at 7:00 am


Visibility: 10 mi

Pressure: 30.01 "Hg (26.85 "Hg at 955m altitude)

Humidity: 73%

Dew Point: 59 °F

Location of AlajuelaLocation

Past Weather in Alajuela — Graph

°F

Alajuela Temperature Yesterday

Maximum temperature yesterday: 84 °F (at 1:00 pm)
Minimum temperature yesterday: 64 °F (at 3:00 am)
Average temperature yesterday: 73 °F

High & Low Weather Summary for the Past Weeks

 TemperatureHumidityPressure
High86 °F (Feb 8, 1:00 pm)100% (Feb 23, 12:25 am)30.13 "Hg (Feb 23, 12:25 am)
Low61 °F (Feb 15, 5:00 am)25% (Feb 8, 9:00 pm)29.90 "Hg (Feb 8, 3:00 pm)
Average74 °F62%30.02 "Hg
* Reported Feb 8 6:00 am — Feb 23 6:00 am, Alajuela, Weather by CustomWeather, © 2017

Note: Actual official high and low records may vary slightly from our data, if they occured in-between our weather recording intervals... More about our weather records

Advertising

Alajuela Weather History for the Previous 24 Hours

Scroll right to see more
 ConditionsComfort  
Time TempWeatherWind HumidityBarometerVisibility
6:00 am
Thu, Feb 23
64 °FSunny.6 mph83%29.99 "Hg10 mi
5:00 am66 °FPassing clouds.3 mph83%29.98 "HgN/A
4:00 am68 °FPassing clouds.3 mph83%29.97 "HgN/A
3:00 am66 °FPassing clouds.3 mph88%29.97 "HgN/A
2:00 am68 °FPassing clouds.1 mph88%29.99 "HgN/A
1:00 am68 °FPassing clouds.No wind100%30.00 "HgN/A
12:25 am68 °FPassing clouds.1 mph100%30.01 "HgN/A
12:00 am70 °FFog.2 mph94%30.02 "Hg1 mi
11:00 pm
Wed, Feb 22
70 °FPassing clouds.2 mph94%30.04 "HgN/A
10:00 pm70 °FPassing clouds.2 mph94%30.04 "HgN/A
9:00 pm70 °FFog.5 mph94%30.03 "HgN/A
8:00 pm70 °FFog.2 mph94%30.01 "HgN/A
7:00 pm72 °FPassing clouds.5 mph88%29.98 "HgN/A
6:00 pm73 °FPassing clouds.9 mph78%29.96 "HgN/A
5:00 pm79 °FPassing clouds.13 mph61%29.94 "HgN/A
4:00 pm82 °FPassing clouds.14 mph55%29.92 "HgN/A
3:00 pm84 °FPassing clouds.13 mph51%29.92 "HgN/A
2:00 pm84 °FPassing clouds.9 mph45%29.93 "HgN/A
1:00 pm84 °FPassing clouds.12 mph43%29.95 "HgN/A
12:00 pm82 °FPassing clouds.8 mph42%29.98 "HgN/A
11:00 am82 °FPassing clouds.6 mph48%30.00 "HgN/A
10:00 am79 °FSunny.7 mph58%30.04 "Hg10 mi
9:00 am77 °FSunny.5 mph61%30.04 "Hg10 mi
8:00 am72 °FSunny.5 mph65%30.03 "Hg10 mi
Weather by CustomWeather, © 2017

See weather overviewHow to use our weather pages